N4MRV-1 Weather Reports


time (UTC)temp
F
wind
direction
speed
knots
gust
knots
rain 1hr
in
rain 24hr
in
rain mn
in
humidity
%
barometer
mb
20260510234516 78 90 0.9 7.8 0.00 0.00 0.00 43 1013.9
20260510233016 80 0.0 0.9 0.00 0.00 0.00 39 1012.9
20260510231516 82 0.0 0.9 0.00 0.00 0.00 36 1012.6
20260510230016 83 0.0 0.9 0.00 0.00 0.00 36 1012.4
20260510224516 85 0.0 1.7 0.00 0.00 0.00 34 1012.4
20260510223016 85 0.0 1.7 0.00 0.00 0.00 34 1012.4
20260510221516 84 0.0 1.7 0.00 0.00 0.00 33 1012.3
20260510220036 83 180 0.9 5.2 0.00 0.00 0.00 36 1012.2
20260510214516 83 203 0.9 1.7 0.00 0.00 0.00 33 1012.2
20260510213016 83 293 0.9 2.6 0.00 0.00 0.00 34 1012.4
20260510211516 84 293 0.9 3.5 0.00 0.00 0.00 35 1012.3
20260510210016 84 180 1.7 6.1 0.00 0.00 0.00 32 1012.3
20260510204516 84 203 0.9 3.5 0.00 0.00 0.00 31 1012.3
20260510203016 84 23 0.9 3.5 0.00 0.00 0.00 32 1012.4
20260510201536 84 338 0.9 4.3 0.00 0.00 0.00 33 1012.4
20260510200036 84 315 0.9 2.6 0.00 0.00 0.00 33 1012.7
20260510194516 85 315 0.9 2.6 0.00 0.00 0.00 32 1012.8
20260510193016 85 293 0.9 5.2 0.00 0.00 0.00 31 1013.2
20260510191516 85 338 0.9 4.3 0.00 0.00 0.00 33 1013.1
20260510190016 83 315 1.7 4.3 0.00 0.00 0.00 34 1013.5
20260510184515 83 180 0.9 2.6 0.00 0.00 0.00 34 1013.5
20260510183016 83 338 0.9 5.2 0.00 0.00 0.00 36 1013.4
20260510181515 82 338 0.9 3.5 0.00 0.00 0.00 37 1013.5
20260510180015 82 315 0.9 4.3 0.00 0.00 0.00 39 1013.6
20260510174515 81 315 1.7 5.2 0.00 0.00 0.00 36 1013.7
20260510173015 81 315 0.9 3.5 0.00 0.00 0.00 35 1013.8
20260510171515 81 158 1.7 4.3 0.00 0.00 0.00 35 1013.9
20260510170055 81 0 0.9 3.5 0.00 0.00 0.00 37 1014.0
20260510164515 82 0 0.9 5.2 0.00 0.00 0.00 37 1014.4
20260510163035 81 23 0.9 4.3 0.00 0.00 0.00 40 1014.2
20260510161515 82 315 0.9 4.3 0.00 0.00 0.00 41 1014.4
20260510160015 81 315 0.9 4.3 0.00 0.00 0.00 40 1014.4
20260510154515 81 293 0.9 2.6 0.00 0.00 0.00 40 1014.6
20260510153015 80 45 0.9 4.3 0.00 0.00 0.00 47 1014.7
20260510151517 79 135 0.9 4.3 0.00 0.00 0.00 46 1014.8
20260510150017 77 158 0.9 3.5 0.00 0.00 0.00 44 1014.8
20260510144517 74 315 0.9 2.6 0.00 0.00 0.00 47 1014.8
20260510143017 72 113 0.9 2.6 0.00 0.00 0.00 48 1014.7
20260510141535 71 0 0.9 3.5 0.00 0.00 0.00 55 1014.6
20260510140017 69 0.0 2.6 0.00 0.00 0.00 60 1014.6
20260510134557 68 315 0.9 2.6 0.00 0.00 0.00 64 1014.5
20260510133017 66 315 0.9 2.6 0.00 0.00 0.00 67 1014.5
20260510131537 64 0.0 3.5 0.00 0.00 0.00 73 1014.7
20260510130017 62 0.0 2.6 0.00 0.00 0.00 79 1014.6
20260510124517 59 0 0.9 2.6 0.00 0.00 0.00 88 1014.3
20260510123017 58 0.0 1.7 0.00 0.00 0.00 95 1014.3
20260510121517 57 0.0 1.7 0.00 0.00 0.00 95 1014.0
20260510120017 56 0.0 0.0 0.00 0.00 0.00 95 1013.7
20260510114517 55 0.0 0.9 0.00 0.00 0.00 94 1013.6
20260510113037 54 0.0 0.9 0.00 0.00 0.00 93 1013.4
20260510111517 54 0.0 0.0 0.00 0.00 0.00 93 1013.3
20260510110017 53 0.0 0.0 0.00 0.00 0.00 92 1013.2
20260510104516 53 0.0 0.9 0.00 0.00 0.00 91 1013.0
20260510103017 54 0.0 0.0 0.00 0.00 0.00 91 1012.8
20260510101517 54 0.0 0.9 0.00 0.00 0.00 91 1012.5
20260510100037 55 0.0 0.0 0.00 0.00 0.00 91 1012.4
20260510094516 55 0.0 0.0 0.00 0.00 0.00 90 1012.3
20260510093056 55 0.0 0.0 0.00 0.00 0.00 90 1012.2
20260510091517 56 0.0 0.0 0.00 0.00 0.00 89 1012.1
20260510090016 56 0.0 0.0 0.00 0.00 0.00 89 1011.9
20260510084516 57 0.0 0.9 0.00 0.00 0.00 89 1011.8
20260510083016 58 0.0 0.0 0.00 0.00 0.00 88 1011.7
20260510081516 58 0.0 0.0 0.00 0.00 0.00 87 1011.7
20260510080016 59 0.0 0.0 0.00 0.00 0.00 86 1011.5
20260510074516 59 0.0 0.0 0.00 0.00 0.00 86 1011.5
20260510073016 60 0.0 0.0 0.00 0.00 0.00 85 1011.4
20260510071556 61 0.0 0.0 0.00 0.00 0.00 85 1011.5
20260510070016 61 0.0 0.0 0.00 0.00 0.00 85 1011.5
20260510064516 62 0.0 0.9 0.00 0.00 0.00 84 1011.4
20260510063016 62 0.0 0.9 0.00 0.00 0.00 84 1011.3
20260510061536 62 0.0 0.9 0.00 0.00 0.00 84 1011.3
20260510060016 62 0.0 0.9 0.00 0.00 0.00 84 1011.3
20260510054516 62 0.0 1.7 0.00 0.00 0.00 84 1011.3
20260510053016 62 0.0 0.9 0.00 0.00 0.00 84 1011.3
20260510051516 62 0.0 0.9 0.00 0.00 0.00 84 1011.3
20260510050016 61 0.0 0.9 0.00 0.00 0.00 85 1011.3
20260510044536 61 0.0 0.0 0.00 0.00 0.00 85 1011.3
20260510043016 61 0.0 0.0 0.00 0.00 0.00 83 1011.4
20260510041516 61 0.0 0.0 0.00 0.00 0.00 83 1011.3
20260510040016 61 0.0 0.0 0.00 0.00 0.00 83 1011.3
20260510034517 61 0.0 0.0 0.00 0.00 0.00 82 1011.2
20260510033016 61 0.0 0.0 0.00 0.00 0.00 81 1011.2
20260510031516 61 0.0 0.0 0.00 0.00 0.00 79 1011.0
20260510030016 61 0.0 0.0 0.00 0.00 0.00 77 1010.9
20260510024516 61 0.0 0.0 0.00 0.00 0.00 76 1010.8
20260510023016 62 0.0 0.0 0.00 0.00 0.00 74 1010.7
20260510021516 63 0.0 0.0 0.00 0.00 0.00 74 1010.5
20260510020036 63 0.0 0.0 0.00 0.00 0.00 72 1010.2
20260510014536 64 0.0 0.0 0.00 0.00 0.00 72 1010.0
20260510013016 65 0.0 0.0 0.00 0.00 0.00 70 1009.9
20260510011536 66 0.0 0.0 0.00 0.00 0.00 68 1009.7
20260510010036 67 0.0 0.0 0.00 0.00 0.00 66 1009.7
20260510004516 68 0.0 0.0 0.00 0.00 0.00 63 1009.4
20260510003016 69 0.0 0.0 0.00 0.00 0.00 61 1009.2
20260510001516 70 0.0 0.9 0.00 0.00 0.00 59 1009.2
20260510000016 72 0.0 0.9 0.00 0.00 0.00 56 1008.9